Location: Street
(51.1247°N, 2.7429°W)
Time: 10:58:32
(UTC+00:00)

A-11 Canister half - Visible Passes

Search period start: 30 November 2020 00:00
Search period end: 10 December 2020 00:00
Orbit: 1516 x 1684 km, 47.2° (Epoch: 29 November)

Date Brightness Start Highest point End Pass type
(mag) Time Alt. Az. Time Alt. Az. Time Alt. Az.
30 Nov 10.9 18:23:54 10° W 18:31:47 27° SW 18:39:40 10° S visible
01 Dec 10.9 18:00:52 10° W 18:08:58 28° SW 18:17:01 10° S visible
02 Dec 10.9 17:37:51 10° W 17:46:07 30° SW 17:54:22 10° SSE visible
03 Dec 10.9 17:14:51 10° W 17:23:16 31° SW 17:31:42 10° SSE visible
04 Dec 11.0 16:51:51 10° W 17:00:25 33° SW 17:09:01 10° SSE visible
05 Dec 11.0 16:28:53 10° W 16:37:34 34° SW 16:46:18 10° SSE visible
06 Dec 12.0 18:15:13 10° WSW 18:17:17 11° WSW 18:19:21 10° SW visible
07 Dec 11.9 17:51:16 10° WSW 17:54:31 12° WSW 17:57:45 10° SW visible
08 Dec 11.9 07:08:54 10° SSE 07:13:27 14° SE 07:18:04 10° E visible
08 Dec 12.0 17:27:42 10° W 17:31:44 13° WSW 17:35:47 10° SSW visible
09 Dec 11.9 06:46:46 10° SSE 06:50:41 13° ESE 06:54:39 10° E visible
09 Dec 12.0 17:04:16 10° W 17:08:56 14° SW 17:13:38 10° SSW visible
